Flag Weather past 2 weeks in Jalandhar, Punjab, India

Now
57 °F

Fog.


Feels Like: 57 °F
Forecast: 51 / 80 °F
Wind: No wind

Location: Amritsar Airport

Current Time: Nov 27, 2014 at 10:54:29 PM

Latest Report: Nov 27, 2014 at 8:30 PM


Visibility: 1 mi

Pressure: 29.89 "Hg

Humidity: 82%

Dew point: 52 °F

Location of JalandharLocation

Historic Weather in Jalandhar — Graph

°F

Jalandhar temperature yesterday

Maximum temperature yesterday: 75 °F (at 2:30 PM)
Minimum temperature yesterday: 45 °F (at 7:30 AM)
Average temperature yesterday: 57 °F

Past Weeks' High & Low Weather Summary

 TemperatureHumidityPressure
High79 °F (Nov 13, 1:30 PM)100% (Nov 13, 5:00 AM)30.12 "Hg (Nov 13, 5:00 AM)
Low45 °F (Nov 25, 6:30 AM)23% (Nov 13, 2:30 PM)29.80 "Hg (Nov 26, 4:30 PM)
Average61 °F70%29.99 "Hg
* Reported Nov 12 8:30 PM — Nov 27 8:30 PM, Jalandhar, Weather by CustomWeather, © 2014

Note: Actual official high and low records may vary slightly from our data, if they occured in-between our weather recording intervals... More about our weather records

Advertising

Jalandhar weather history for previous 24 hours

 ConditionsComfort  
Time TempWeatherWind HumidityBarometerVisibility
8:30 PM
Nov 27
57 °FFog.No wind82%29.89 "Hg1 mi
8:00 PM57 °FFog.No wind82%29.89 "Hg1 mi
7:30 PM61 °FFog.No wind77%29.89 "Hg1 mi
7:00 PM59 °FFog.No wind82%29.89 "Hg1 mi
6:30 PM63 °FPassing clouds.No wind73%29.89 "Hg1 mi
6:00 PM66 °FPassing clouds.No wind60%29.86 "Hg1 mi
5:30 PM66 °FScattered clouds.No wind64%29.86 "Hg1 mi
5:00 PM68 °FScattered clouds.No wind60%29.86 "Hg1 mi
4:30 PM72 °FScattered clouds.3 mph53%29.86 "Hg1 mi
4:00 PM73 °FScattered clouds.5 mph47%29.86 "Hg1 mi
3:30 PM73 °FPartly sunny.7 mph47%29.86 "Hg1 mi
3:00 PM73 °FPartly sunny.7 mph44%29.86 "Hg1 mi
2:00 PM73 °FBroken clouds.7 mph47%29.89 "Hg1 mi
1:30 PM72 °FBroken clouds.8 mph57%29.89 "Hg1 mi
1:00 PM72 °FBroken clouds.7 mph61%29.92 "Hg1 mi
12:30 PM70 °FBroken clouds.6 mph64%29.95 "Hg1 mi
12:00 PM70 °FScattered clouds.7 mph69%29.95 "Hg1 mi
11:30 AM70 °FFog.6 mph78%29.95 "Hg1 mi
11:00 AM68 °FFog.No wind69%29.95 "Hg1 mi
10:30 AM66 °FFog.7 mph56%29.92 "Hg1 mi
10:00 AM63 °FFog.No wind83%29.92 "Hg1 mi
9:30 AM61 °FFog.No wind83%29.95 "Hg1 mi
9:00 AM57 °FFog.No wind88%29.92 "Hg1 mi
8:30 AM54 °FFog.No wind94%29.89 "Hg1 mi
7:30 AM50 °FFog.No wind94%29.86 "Hg1 mi
7:00 AM48 °FFog.No wind100%29.86 "Hg1 mi
6:00 AM48 °FFog.No wind100%29.83 "Hg1 mi
5:30 AM48 °FFog.No wind100%29.83 "Hg1 mi
5:00 AM48 °FFog.No wind100%29.83 "Hg1 mi
4:30 AM50 °FFog.No wind100%29.83 "Hg1 mi
4:00 AM48 °FFog.No wind100%29.83 "Hg1 mi
3:30 AM50 °FFog.No wind100%29.83 "Hg1 mi
3:00 AM50 °FFog.No wind100%29.83 "Hg1 mi
2:30 AM50 °FFog.No wind100%29.83 "Hg1 mi
2:00 AM52 °FFog.No wind94%29.83 "Hg1 mi
1:30 AM52 °FFog.No wind100%29.83 "Hg1 mi
1:00 AM52 °FFog.No wind88%29.83 "Hg1 mi
12:30 AM54 °FFog.No wind94%29.83 "Hg1 mi
12:00 AM54 °FFog.No wind88%29.86 "Hg1 mi
11:30 PM
Nov 26
54 °FFog.No wind88%29.86 "Hg1 mi
11:00 PM54 °FFog.No wind88%29.86 "Hg1 mi
10:00 PM55 °FFog.No wind82%29.86 "Hg1 mi
Weather by CustomWeather, © 2014

See weather overviewHow to use our weather pages